Terminal Aerodrome Forecast
Issued by NWS

Home | Current Version | Previous Version | Graphics & Text | Print | Product List | Glossary Off
Versions: 1 2 3 4 5 6 7 8 9 10 11 12 13 14 15 16

000
FTUS43 KDDC 251720
TAFGCK
TAF
KGCK 251720Z 2518/2618 22012KT P6SM SKC
     FM260000 18004KT P6SM SCT200
     FM261000 08005KT P6SM BKN200
     FM261600 02010KT P6SM SCT200=

USA.gov is the U.S. government's official web portal to all federal, state and local government web resources and services.